NC4M Weather Reports


time (UTC)temp
F
wind
direction
speed
knots
gust
knots
rain 1hr
in
rain 24hr
in
rain mn
in
humidity
%
barometer
mb
20260510203200 70 298 0.0 0.9 0.00 0.00 0.00 39 1020.3
20260510202700 71 32 1.7 2.6 0.00 0.00 0.00 30 1020.3
20260510202155 71 73 0.9 1.7 0.00 0.00 0.00 31 1020.3
20260510201653 71 299 0.9 0.9 0.00 0.00 0.00 33 1020.6
20260510201149 70 273 0.9 2.6 0.00 0.00 0.00 30 1020.5
20260510200646 71 323 0.9 3.5 0.00 0.00 0.00 32 1020.5
20260510200143 71 351 0.9 1.7 0.00 0.00 0.00 33 1020.5
20260510195640 72 311 1.7 1.7 0.00 0.00 0.00 35 1020.6
20260510195137 71 343 0.0 0.9 0.00 0.00 0.00 34 1020.5
20260510194636 70 292 1.7 1.7 0.00 0.00 0.00 37 1020.7
20260510194133 69 71 1.7 1.7 0.00 0.00 0.00 33 1020.6
20260510193628 70 10 1.7 2.6 0.00 0.00 0.00 34 1020.8
20260510193124 70 267 0.9 1.7 0.00 0.00 0.00 39 1020.5
20260510192619 70 59 0.0 1.7 0.00 0.00 0.00 34 1020.6
20260510192116 71 23 1.7 3.5 0.00 0.00 0.00 35 1020.5
20260510191612 71 295 3.5 5.2 0.00 0.00 0.00 36 1020.5
20260510191108 71 301 1.7 2.6 0.00 0.00 0.00 36 1020.2
20260510190606 72 250 0.9 5.2 0.00 0.00 0.00 32 1020.3
20260510190103 71 298 0.9 1.7 0.00 0.00 0.00 35 1020.2
20260510185559 71 87 0.0 1.7 0.00 0.00 0.00 34 1020.3
20260510185057 71 253 1.7 1.7 0.00 0.00 0.00 33 1020.1
20260510184554 70 298 3.5 3.5 0.00 0.00 0.00 36 1020.2
20260510184049 71 277 3.5 5.2 0.00 0.00 0.00 32 1020.2
20260510183545 70 293 0.9 2.6 0.00 0.00 0.00 34 1020.5
20260510183041 71 48 2.6 2.6 0.00 0.00 0.00 33 1020.3
20260510182538 71 123 1.7 5.2 0.00 0.00 0.00 32 1020.2
20260510182032 72 232 0.9 2.6 0.00 0.00 0.00 34 1020.0
20260510181531 71 342 0.0 1.7 0.00 0.00 0.00 36 1020.0
20260510181026 71 259 2.6 3.5 0.00 0.00 0.00 39 1019.9
20260510180524 71 27 0.9 2.6 0.00 0.00 0.00 32 1019.9
20260510180022 71 23 0.9 5.2 0.00 0.00 0.00 36 1019.9
20260510175522 70 26 0.9 1.7 0.00 0.00 0.00 34 1019.6
20260510175019 71 354 0.9 2.6 0.00 0.00 0.00 32 1019.8
20260510174517 70 54 0.9 1.7 0.00 0.00 0.00 33 1019.9
20260510174014 70 260 1.7 2.6 0.00 0.00 0.00 33 1020.0
20260510173508 69 85 0.9 2.6 0.00 0.00 0.00 33 1020.0
20260510173006 69 269 1.7 2.6 0.00 0.00 0.00 34 1020.0
20260510172501 70 237 1.7 2.6 0.00 0.00 0.00 33 1020.0
20260510171958 70 42 3.5 5.2 0.00 0.00 0.00 31 1019.8
20260510171454 70 315 2.6 6.1 0.00 0.00 0.00 33 1020.0
20260510170951 69 43 0.9 1.7 0.00 0.00 0.00 33 1020.0
20260510170448 70 89 1.7 5.2 0.00 0.00 0.00 34 1020.1
20260510165943 69 38 1.7 2.6 0.00 0.00 0.00 34 1019.8
20260510165440 69 58 0.9 1.7 0.00 0.00 0.00 35 1019.8
20260510164937 69 21 1.7 2.6 0.00 0.00 0.00 33 1019.9
20260510164434 69 169 1.7 2.6 0.00 0.00 0.00 35 1020.0
20260510163934 68 49 0.9 2.6 0.00 0.00 0.00 35 1019.8
20260510163430 69 24 0.0 2.6 0.00 0.00 0.00 35 1020.1
20260510162925 69 326 0.9 2.6 0.00 0.00 0.00 36 1019.8
20260510162423 69 250 2.6 3.5 0.00 0.00 0.00 35 1019.9
20260510161919 69 243 1.7 5.2 0.00 0.00 0.00 33 1019.8
20260510161414 68 126 0.0 2.6 0.00 0.00 0.00 38 1019.8
20260510160912 67 314 0.0 2.6 0.00 0.00 0.00 42 1019.5
20260510160409 67 140 2.6 5.2 0.00 0.00 0.00 35 1019.9
20260510155907 67 219 0.9 2.6 0.00 0.00 0.00 36 1020.0
20260510155405 67 246 2.6 3.5 0.00 0.00 0.00 37 1020.1
20260510154901 67 63 0.9 3.5 0.00 0.00 0.00 37 1020.1
20260510154357 66 84 0.9 0.9 0.00 0.00 0.00 40 1020.0
20260510153851 66 23 0.9 3.5 0.00 0.00 0.00 42 1020.0
20260510153347 66 267 0.9 2.6 0.00 0.00 0.00 38 1020.0
20260510152844 66 291 0.0 1.7 0.00 0.00 0.00 44 1020.1
20260510152342 66 275 1.7 1.7 0.00 0.00 0.00 44 1020.0
20260510151837 65 266 1.7 5.2 0.00 0.00 0.00 42 1020.2
20260510151335 66 53 0.0 5.2 0.00 0.00 0.00 38 1020.1
20260510150831 65 39 1.7 2.6 0.00 0.00 0.00 41 1020.2
20260510150327 65 81 1.7 2.6 0.00 0.00 0.00 39 1020.1
20260510145824 64 49 0.0 1.7 0.00 0.00 0.00 42 1020.0
20260510145320 64 8 0.9 3.5 0.00 0.00 0.00 44 1020.1
20260510144817 64 91 1.7 6.1 0.00 0.00 0.00 40 1020.2
20260510144313 64 313 0.9 3.5 0.00 0.00 0.00 42 1019.9
20260510143813 64 88 1.7 3.5 0.00 0.00 0.00 42 1019.9
20260510143309 63 223 0.0 1.7 0.00 0.00 0.00 46 1019.8
20260510142806 63 53 1.7 2.6 0.00 0.00 0.00 43 1019.7
20260510142306 63 85 1.7 2.6 0.00 0.00 0.00 44 1019.7
20260510141800 63 264 0.9 3.5 0.00 0.00 0.00 45 1019.4
20260510141258 63 34 0.9 1.7 0.00 0.00 0.00 46 1019.2
20260510140755 63 251 0.9 1.7 0.00 0.00 0.00 48 1019.3
20260510140250 63 50 0.0 3.5 0.00 0.00 0.00 50 1019.0
20260510135750 62 50 1.7 2.6 0.00 0.00 0.00 50 1018.9
20260510135245 62 108 0.0 0.9 0.00 0.00 0.00 50 1019.0
20260510134743 62 322 0.0 0.9 0.00 0.00 0.00 54 1018.8
20260510134240 61 112 1.7 2.6 0.00 0.00 0.00 52 1018.8
20260510133736 61 208 0.9 2.6 0.00 0.00 0.00 51 1018.7
20260510133232 61 48 1.7 2.6 0.00 0.00 0.00 53 1018.7
20260510132728 61 347 0.9 0.9 0.00 0.00 0.00 57 1018.7
20260510132226 61 62 0.0 0.0 0.00 0.00 0.00 56 1018.4
20260510131722 60 88 0.0 1.7 0.00 0.00 0.00 57 1018.6
20260510131221 60 50 0.9 1.7 0.00 0.00 0.00 60 1018.4
20260510130716 60 79 0.0 5.2 0.00 0.00 0.00 63 1018.2
20260510130214 59 80 0.0 2.6 0.00 0.00 0.00 64 1018.4
20260510125710 59 56 0.0 1.7 0.00 0.00 0.00 66 1018.3
20260510125206 59 69 0.9 1.7 0.00 0.00 0.00 68 1018.2
20260510124703 59 71 1.7 2.6 0.00 0.00 0.00 70 1018.4
20260510124201 59 68 0.9 2.6 0.00 0.00 0.00 69 1018.4
20260510123655 59 45 0.9 0.9 0.00 0.00 0.00 70 1018.1
20260510123152 59 96 0.9 1.7 0.00 0.00 0.00 70 1018.3
20260510122648 59 280 0.0 1.7 0.00 0.00 0.00 71 1018.0
20260510122144 59 231 0.0 0.9 0.00 0.00 0.00 71 1017.8
20260510121641 59 65 0.9 1.7 0.00 0.00 0.00 72 1017.9
20260510121138 59 359 0.9 0.9 0.00 0.00 0.00 72 1017.8
20260510120636 59 116 0.0 1.7 0.00 0.00 0.00 72 1017.8
20260510120131 59 304 0.0 0.9 0.00 0.00 0.00 73 1017.8
20260510115628 59 355 0.0 0.9 0.00 0.00 0.00 73 1017.4
20260510115126 59 63 0.9 1.7 0.00 0.00 0.00 75 1017.5
20260510114621 59 50 0.0 0.9 0.00 0.00 0.00 77 1017.5
20260510114118 59 88 0.0 2.6 0.00 0.00 0.00 78 1017.4
20260510113613 59 240 0.0 1.7 0.00 0.00 0.00 81 1017.1
20260510113111 59 293 0.0 0.9 0.00 0.00 0.00 82 1017.3
20260510112607 59 301 0.0 2.6 0.00 0.00 0.00 83 1017.1
20260510112104 59 277 0.0 0.9 0.00 0.00 0.00 84 1017.4
20260510111600 59 240 0.0 1.7 0.00 0.00 0.00 83 1017.0
20260510111056 59 4 0.0 0.9 0.00 0.00 0.00 84 1016.9
20260510110552 59 13 0.0 0.0 0.00 0.00 0.00 83 1016.7
20260510110049 59 13 0.0 0.0 0.00 0.00 0.00 82 1016.7
20260510105544 59 13 0.0 0.0 0.00 0.00 0.00 81 1016.5
20260510105039 60 13 0.0 0.0 0.00 0.00 0.00 80 1016.4
20260510104536 60 13 0.0 0.0 0.00 0.00 0.00 79 1016.3
20260510104032 60 13 0.0 0.9 0.00 0.00 0.00 79 1016.2
20260510103530 60 14 0.0 0.0 0.00 0.00 0.00 77 1016.0
20260510103026 61 14 0.0 0.0 0.00 0.00 0.00 76 1016.0
20260510102522 61 14 0.0 0.0 0.00 0.00 0.00 75 1015.8
20260510102018 61 14 0.0 0.9 0.00 0.00 0.00 76 1016.1
20260510101515 61 255 0.0 0.9 0.00 0.00 0.00 75 1015.9
20260510101014 61 245 1.7 1.7 0.00 0.00 0.00 78 1015.8
20260510100510 61 45 0.0 0.9 0.00 0.00 0.00 81 1015.3
20260510100007 61 33 0.0 0.0 0.00 0.00 0.00 81 1015.3
20260510095502 61 326 0.0 0.0 0.00 0.00 0.00 81 1015.2
20260510095002 61 327 0.9 0.9 0.00 0.00 0.00 82 1015.2
20260510094457 60 207 0.0 0.0 0.00 0.00 0.00 83 1015.4
20260510093953 60 65 0.0 0.9 0.00 0.00 0.00 84 1015.2
20260510093448 60 60 0.0 0.0 0.00 0.00 0.00 85 1015.2
20260510092945 60 60 0.0 0.0 0.00 0.00 0.00 84 1015.2
20260510092443 60 61 0.0 1.7 0.00 0.00 0.00 84 1015.3
20260510091942 61 213 0.0 0.0 0.00 0.00 0.00 84 1015.3
20260510091440 61 24 0.0 1.7 0.00 0.00 0.00 84 1015.4
20260510090936 61 263 1.7 1.7 0.00 0.00 0.00 83 1015.2
20260510090433 61 314 0.9 2.6 0.00 0.00 0.00 82 1015.3
20260510085928 61 294 0.0 1.7 0.00 0.00 0.00 83 1015.0
20260510085424 61 275 0.9 0.9 0.00 0.00 0.00 83 1015.0
20260510084919 61 275 0.0 0.0 0.00 0.00 0.00 82 1014.6
20260510084417 61 275 0.0 0.0 0.00 0.00 0.00 82 1014.6
20260510083913 60 273 0.0 0.9 0.00 0.00 0.00 83 1014.6
20260510083410 60 298 0.0 0.9 0.00 0.00 0.00 83 1014.8
20260510082905 60 298 0.0 0.0 0.00 0.00 0.00 82 1014.5
20260510082403 60 298 0.0 0.0 0.00 0.00 0.00 83 1014.5
20260510081901 61 298 0.0 0.0 0.00 0.00 0.00 83 1014.4
20260510081358 61 298 0.0 0.0 0.00 0.00 0.00 79 1014.3
20260510080855 61 298 0.0 0.0 0.00 0.00 0.00 80 1014.1
20260510080354 62 298 0.0 0.0 0.00 0.00 0.00 77 1013.9
20260510075852 62 298 0.0 0.0 0.00 0.00 0.00 75 1013.9
20260510075349 62 298 0.0 0.0 0.00 0.00 0.00 76 1014.1
20260510074845 62 298 0.0 0.0 0.00 0.00 0.00 75 1014.1
20260510074343 62 298 0.0 0.0 0.00 0.00 0.00 75 1014.4
20260510073839 63 298 0.9 0.9 0.00 0.00 0.00 75 1014.3
20260510073334 63 297 0.0 0.0 0.00 0.00 0.00 75 1014.3
20260510072831 63 298 0.0 0.0 0.00 0.00 0.00 72 1014.3
20260510072328 63 298 0.0 0.0 0.00 0.00 0.00 73 1014.4
20260510071824 62 298 0.9 0.9 0.00 0.00 0.00 75 1014.4
20260510071320 62 298 0.0 0.0 0.00 0.00 0.00 80 1014.3
20260510070820 62 298 0.0 0.0 0.00 0.00 0.00 76 1013.9
20260510070316 62 298 0.0 0.0 0.00 0.00 0.00 76 1014.1
20260510065816 62 298 0.0 0.0 0.00 0.00 0.00 75 1013.8
20260510065313 63 298 0.0 0.0 0.00 0.00 0.00 75 1013.8
20260510064810 63 298 0.0 0.0 0.00 0.00 0.00 76 1014.1
20260510064308 63 298 0.0 0.0 0.00 0.00 0.00 74 1014.1
20260510063803 63 298 0.0 0.0 0.00 0.00 0.00 72 1014.2
20260510063259 62 298 0.9 0.9 0.00 0.00 0.00 74 1014.4
20260510062756 62 278 0.0 0.0 0.00 0.00 0.00 76 1014.2
20260510062252 61 278 0.0 0.0 0.00 0.00 0.00 76 1014.1
20260510061747 61 278 0.0 0.0 0.00 0.00 0.00 80 1013.9
20260510061245 62 278 0.0 0.0 0.00 0.00 0.00 79 1013.6
20260510060740 62 278 0.0 0.0 0.00 0.00 0.00 74 1013.8
20260510060238 62 278 0.0 0.0 0.00 0.00 0.00 75 1013.4
20260510055734 63 278 0.0 0.0 0.00 0.00 0.00 72 1013.6
20260510055233 63 278 0.0 0.0 0.00 0.00 0.00 71 1013.3
20260510054732 63 278 0.0 0.0 0.00 0.00 0.00 71 1013.5
20260510054229 64 278 0.0 0.0 0.00 0.00 0.00 75 1013.6
20260510053728 64 278 0.0 0.0 0.00 0.00 0.00 70 1013.3
20260510053225 64 278 0.0 0.0 0.00 0.00 0.00 69 1013.3
20260510052720 64 278 0.0 0.0 0.00 0.00 0.00 70 1013.4
20260510052217 64 278 0.0 0.0 0.00 0.00 0.00 67 1013.2
20260510051712 64 278 0.0 0.0 0.00 0.00 0.00 71 1013.3
20260510051209 64 278 0.0 0.0 0.00 0.00 0.00 69 1013.4
20260510050706 65 278 0.0 0.0 0.00 0.00 0.00 69 1013.3
20260510050204 65 278 0.0 0.0 0.00 0.00 0.00 64 1013.2
20260510045700 65 278 0.0 0.0 0.00 0.00 0.00 68 1013.1
20260510045157 65 278 0.0 0.0 0.00 0.00 0.00 62 1012.9
20260510044653 66 278 0.0 0.0 0.00 0.00 0.00 63 1013.1
20260510044151 66 278 0.0 0.0 0.00 0.00 0.00 63 1013.0
20260510043646 66 278 0.0 0.0 0.00 0.00 0.00 61 1012.7
20260510043143 67 278 0.0 0.0 0.00 0.00 0.00 61 1012.9
20260510042641 67 278 0.0 0.0 0.00 0.00 0.00 58 1012.7
20260510042136 67 277 0.9 0.9 0.00 0.00 0.00 57 1012.6
20260510041634 68 289 0.0 0.0 0.00 0.00 0.00 56 1012.6
20260510041131 68 290 0.0 0.0 0.00 0.00 0.00 56 1012.6
20260510040628 68 289 0.9 0.9 0.00 0.00 0.00 55 1012.6
20260510040124 69 284 0.9 1.7 0.00 0.00 0.00 54 1012.8
20260510035620 69 310 0.9 0.9 0.00 0.00 0.00 54 1012.7
20260510035121 69 280 1.7 3.5 0.00 0.00 0.00 52 1012.6
20260510034618 69 261 0.9 1.7 0.00 0.00 0.00 51 1012.4
20260510034115 67 280 0.9 0.9 0.00 0.00 0.00 52 1012.5
20260510033611 65 328 1.7 1.7 0.00 0.00 0.00 56 1012.3
20260510033109 64 328 0.0 0.0 0.00 0.00 0.00 63 1011.9
20260510032605 64 328 0.0 0.0 0.00 0.00 0.00 63 1011.6
20260510032101 64 328 0.0 0.0 0.00 0.00 0.00 61 1012.0
20260510031556 63 328 0.0 0.0 0.00 0.00 0.00 62 1011.7
20260510031052 63 328 0.0 0.0 0.00 0.00 0.00 63 1011.8
20260510030547 63 328 0.0 0.0 0.00 0.00 0.00 68 1011.7
20260510030045 62 328 0.0 0.0 0.00 0.00 0.00 62 1011.6
20260510025542 62 328 0.0 0.0 0.00 0.00 0.00 66 1011.6
20260510025040 62 328 0.0 0.0 0.00 0.00 0.00 68 1011.5
20260510024536 62 328 0.0 0.0 0.00 0.00 0.00 64 1011.2
20260510024032 62 328 0.0 0.0 0.00 0.00 0.00 66 1011.4
20260510023528 62 328 0.0 0.0 0.00 0.00 0.00 69 1011.0
20260510023026 62 328 0.0 0.0 0.00 0.00 0.00 67 1010.9
20260510022525 63 328 0.0 0.0 0.00 0.00 0.00 67 1010.9
20260510022020 63 328 0.0 0.0 0.00 0.00 0.00 64 1011.0
20260510021517 63 328 0.0 0.0 0.00 0.00 0.00 64 1011.0
20260510021014 63 328 0.0 0.0 0.00 0.00 0.00 62 1011.0
20260510020508 63 328 0.0 0.0 0.00 0.00 0.00 64 1010.9
20260510020005 63 328 0.0 0.0 0.00 0.00 0.00 64 1010.6
20260510015500 64 328 0.0 0.0 0.00 0.00 0.00 66 1010.6
20260510014955 64 328 0.0 0.0 0.00 0.00 0.00 67 1010.4
20260510014454 64 328 0.0 0.0 0.00 0.00 0.00 66 1010.4
20260510013950 64 328 0.0 0.0 0.00 0.00 0.00 62 1010.2
20260510013444 65 328 0.0 0.0 0.00 0.00 0.00 64 1010.3
20260510012940 65 328 0.0 0.0 0.00 0.00 0.00 64 1010.2
20260510012435 66 328 0.0 0.0 0.00 0.00 0.00 61 1010.0
20260510011931 66 328 0.0 0.0 0.00 0.00 0.00 61 1010.1
20260510011425 67 328 0.0 0.0 0.00 0.00 0.00 60 1009.9
20260510010922 67 328 0.0 0.0 0.00 0.00 0.00 58 1010.0
20260510010420 68 328 0.0 0.0 0.00 0.00 0.00 56 1009.8
20260510005916 68 328 0.0 0.0 0.00 0.00 0.00 54 1010.1
20260510005412 69 328 0.0 0.0 0.00 0.00 0.00 51 1009.9
20260510004909 69 328 0.0 0.0 0.00 0.00 0.00 51 1009.8
20260510004407 70 328 0.0 0.0 0.00 0.00 0.00 51 1009.9
20260510003904 71 328 0.0 0.0 0.00 0.00 0.00 50 1010.0
20260510003401 71 328 0.0 0.0 0.00 0.00 0.00 51 1009.7
20260510002900 72 328 0.0 0.0 0.00 0.00 0.00 46 1009.8
20260510002358 73 328 0.0 0.0 0.00 0.00 0.00 43 1009.9
20260510001854 73 328 0.0 0.0 0.00 0.00 0.00 43 1009.8
20260510001352 74 328 0.0 0.0 0.00 0.00 0.00 42 1009.7
20260510000848 74 328 0.0 0.0 0.00 0.00 0.00 41 1009.9
20260510000348 74 328 0.0 0.0 0.00 0.00 0.00 44 1009.6
20260509235842 74 328 0.0 0.0 0.00 0.00 0.00 39 1009.7
20260509235339 75 328 0.0 0.0 0.00 0.00 0.00 40 1009.6
20260509234834 75 328 0.0 0.0 0.00 0.00 0.00 43 1009.7
20260509234332 75 328 0.0 0.0 0.00 0.00 0.00 38 1009.6
20260509233830 76 328 0.0 0.0 0.00 0.00 0.00 39 1009.7
20260509233327 76 328 0.0 0.0 0.00 0.00 0.00 36 1009.7
20260509232822 76 328 0.0 0.0 0.00 0.00 0.00 38 1009.6
20260509232320 77 328 0.0 0.0 0.00 0.00 0.00 39 1009.6
20260509231816 77 328 0.0 0.9 0.00 0.00 0.00 41 1009.5
20260509231313 77 328 0.9 0.9 0.00 0.00 0.00 37 1009.5
20260509230812 78 328 0.0 0.0 0.00 0.00 0.00 37 1009.7
20260509230308 78 328 0.0 0.9 0.00 0.00 0.00 42 1009.6
20260509225803 78 328 0.9 0.9 0.00 0.00 0.00 33 1009.5
20260509225300 79 333 0.0 0.9 0.00 0.00 0.00 37 1009.5
20260509224756 79 302 1.7 1.7 0.00 0.00 0.00 32 1009.4
20260509224253 79 304 0.0 0.0 0.00 0.00 0.00 34 1009.5
20260509223749 80 305 0.0 1.7 0.00 0.00 0.00 34 1009.6
20260509223246 80 308 0.0 1.7 0.00 0.00 0.00 33 1009.3
20260509222743 80 324 2.6 3.5 0.00 0.00 0.00 31 1009.6
20260509222238 81 310 0.9 2.6 0.00 0.00 0.00 31 1009.7
20260509221734 81 297 0.9 0.9 0.00 0.00 0.00 30 1009.6
20260509221231 82 303 0.9 2.6 0.00 0.00 0.00 33 1009.5
20260509220727 82 321 0.9 1.7 0.00 0.00 0.00 33 1009.5
20260509220223 82 316 0.9 2.6 0.00 0.00 0.00 31 1009.4
20260509215719 83 313 1.7 3.5 0.00 0.00 0.00 29 1009.5
20260509215216 84 283 1.7 2.6 0.00 0.00 0.00 31 1009.5
20260509214713 83 277 0.0 0.9 0.00 0.00 0.00 28 1009.4
20260509214210 84 312 1.7 1.7 0.00 0.00 0.00 31 1009.6
20260509213707 84 260 0.0 0.0 0.00 0.00 0.00 30 1009.6
20260509213202 84 248 0.9 0.9 0.00 0.00 0.00 31 1009.7
20260509212700 83 255 0.9 0.9 0.00 0.00 0.00 33 1009.7
20260509212157 83 277 0.9 1.7 0.00 0.00 0.00 32 1009.7
20260509211652 84 315 1.7 2.6 0.00 0.00 0.00 28 1009.4
20260509211149 84 251 0.9 1.7 0.00 0.00 0.00 32 1009.7
20260509210646 83 247 0.9 0.9 0.00 0.00 0.00 31 1009.7
20260509210143 82 323 0.9 3.5 0.00 0.00 0.00 28 1009.7
20260509205638 82 280 1.7 2.6 0.00 0.00 0.00 33 1009.8
20260509205133 82 291 0.9 3.5 0.00 0.00 0.00 36 1009.9
20260509204629 83 297 0.9 2.6 0.00 0.00 0.00 34 1010.0
20260509204126 82 262 0.9 1.7 0.00 0.00 0.00 35 1009.9
20260509203622 82 263 0.0 1.7 0.00 0.00 0.00 34 1009.8